• In Belgium
  • List of Countries
  • For 7 days
  • Water Temperature
  • Satellite Maps
  • Weather Map
  • Weather Widgets
  • user-avatar
    Login

    Hourly Weather Horog

    Today, 19 January, Friday

    Time Temperature Precipitation Wind Pressure Humidity
    00:00 -17°C° 0 mm 3 mps 482 mmHg 66%
    01:00 -17°C° 0 mm 3 mps 482 mmHg 65%
    02:00 -17°C° 0 mm 3 mps 481 mmHg 65%
    03:00 -17°C° 0 mm 3 mps 481 mmHg 64%
    04:00 -18°C° 0 mm 3 mps 481 mmHg 64%
    05:00 -18°C° 0 mm 3 mps 481 mmHg 63%
    06:00 -18°C° 0 mm 3 mps 482 mmHg 64%
    07:00 -16°C° 0 mm 2 mps 482 mmHg 64%
    08:00 -16°C° 0 mm 2 mps 482 mmHg 65%
    09:00 -15°C° 0.1 mm 2 mps 483 mmHg 65%
    10:00 -13°C° 0.1 mm 2 mps 484 mmHg 66%
    11:00 -12°C° 0.1 mm 2 mps 484 mmHg 66%
    12:00 -10°C° 0.1 mm 2 mps 484 mmHg 65%
    13:00 -10°C° 0.1 mm 2 mps 485 mmHg 64%
    14:00 -9°C° 0.1 mm 2 mps 485 mmHg 63%
    15:00 -10°C° 0 mm 2 mps 484 mmHg 64%
    16:00 -11°C° 0 mm 1 mps 484 mmHg 64%
    17:00 -12°C° 0 mm 1 mps 483 mmHg 65%
    18:00 -15°C° 0 mm 2 mps 484 mmHg 61%
    19:00 -16°C° 0 mm 2 mps 484 mmHg 58%
    20:00 -19°C° 0 mm 3 mps 484 mmHg 55%
    21:00 -19°C° 0 mm 3 mps 484 mmHg 51%
    22:00 -19°C° 0 mm 3 mps 484 mmHg 47%
    23:00 -21°C° 0 mm 3 mps 484 mmHg 43%

    Tomorrow, 20 January, Saturday

    Time Temperature Precipitation Wind Pressure Humidity
    00:00 -21°C° 0 mm 3 mps 484 mmHg 40%
    01:00 -21°C° 0 mm 3 mps 484 mmHg 37%
    02:00 -21°C° 0 mm 3 mps 484 mmHg 34%
    03:00 -21°C° 0 mm 3 mps 484 mmHg 31%
    04:00 -21°C° 0 mm 3 mps 483 mmHg 28%
    05:00 -22°C° 0 mm 3 mps 483 mmHg 26%
    06:00 -21°C° 0 mm 3 mps 483 mmHg 24%
    07:00 -21°C° 0 mm 3 mps 483 mmHg 23%
    08:00 -21°C° 0 mm 3 mps 483 mmHg 21%
    09:00 -18°C° 0 mm 3 mps 484 mmHg 29%
    10:00 -15°C° 0 mm 3 mps 485 mmHg 37%
    11:00 -12°C° 0 mm 3 mps 486 mmHg 45%
    12:00 -9°C° 0 mm 2 mps 486 mmHg 47%
    13:00 -8°C° 0 mm 2 mps 486 mmHg 48%
    14:00 -6°C° 0 mm 2 mps 486 mmHg 50%
    15:00 -8°C° 0 mm 2 mps 485 mmHg 47%
    16:00 -10°C° 0 mm 2 mps 484 mmHg 44%
    17:00 -12°C° 0 mm 2 mps 483 mmHg 41%
    18:00 -14°C° 0 mm 3 mps 482 mmHg 38%
    19:00 -15°C° 0 mm 3 mps 482 mmHg 35%
    20:00 -17°C° 0 mm 3 mps 482 mmHg 32%
    21:00 -17°C° 0 mm 3 mps 482 mmHg 32%
    22:00 -17°C° 0 mm 3 mps 482 mmHg 32%
    23:00 -18°C° 0 mm 3 mps 481 mmHg 32%

    Day after tomorrow, 21 January, Sunday

    Time Temperature Precipitation Wind Pressure Humidity
    00:00 -18°C° 0 mm 3 mps 481 mmHg 31%
    01:00 -19°C° 0 mm 4 mps 481 mmHg 30%
    02:00 -20°C° 0 mm 4 mps 481 mmHg 29%
    03:00 -20°C° 0 mm 4 mps 480 mmHg 27%
    04:00 -20°C° 0 mm 4 mps 480 mmHg 26%
    05:00 -19°C° 0 mm 3 mps 480 mmHg 25%
    06:00 -19°C° 0 mm 3 mps 480 mmHg 24%
    07:00 -19°C° 0 mm 3 mps 480 mmHg 23%
    08:00 -19°C° 0 mm 3 mps 480 mmHg 22%
    09:00 -17°C° 0 mm 3 mps 481 mmHg 31%
    10:00 -14°C° 0 mm 3 mps 482 mmHg 39%
    11:00 -10°C° 0 mm 3 mps 483 mmHg 47%
    12:00 -8°C° 0 mm 2 mps 483 mmHg 49%
    13:00 -7°C° 0 mm 2 mps 483 mmHg 50%
    14:00 -6°C° 0 mm 2 mps 484 mmHg 51%
    15:00 -7°C° 0 mm 2 mps 483 mmHg 49%
    16:00 -9°C° 0 mm 2 mps 482 mmHg 47%
    17:00 -12°C° 0 mm 2 mps 481 mmHg 46%
    18:00 -13°C° 0 mm 2 mps 481 mmHg 42%
    19:00 -16°C° 0 mm 3 mps 481 mmHg 39%
    20:00 -17°C° 0 mm 3 mps 481 mmHg 36%
    21:00 -17°C° 0 mm 3 mps 481 mmHg 35%
    22:00 -18°C° 0 mm 3 mps 481 mmHg 35%
    23:00 -19°C° 0 mm 3 mps 480 mmHg 34%

    22 January, Monday

    Time Temperature Precipitation Wind Pressure Humidity
    00:00 -19°C° 0 mm 3 mps 480 mmHg 35%
    01:00 -19°C° 0 mm 3 mps 480 mmHg 35%
    02:00 -21°C° 0 mm 3 mps 480 mmHg 35%
    03:00 -21°C° 0 mm 3 mps 479 mmHg 35%
    04:00 -21°C° 0 mm 3 mps 479 mmHg 34%
    05:00 -21°C° 0 mm 3 mps 479 mmHg 34%
    06:00 -21°C° 0 mm 3 mps 479 mmHg 33%
    07:00 -22°C° 0 mm 3 mps 479 mmHg 32%
    08:00 -22°C° 0 mm 3 mps 479 mmHg 31%
    09:00 -18°C° 0 mm 3 mps 480 mmHg 36%
    10:00 -16°C° 0 mm 3 mps 481 mmHg 42%
    11:00 -12°C° 0 mm 2 mps 482 mmHg 48%
    12:00 -10°C° 0 mm 2 mps 482 mmHg 48%
    13:00 -9°C° 0 mm 2 mps 482 mmHg 48%
    14:00 -6°C° 0 mm 1 mps 482 mmHg 48%
    15:00 -8°C° 0 mm 1 mps 481 mmHg 48%
    16:00 -10°C° 0 mm 1 mps 480 mmHg 49%
    17:00 -12°C° 0 mm 1 mps 479 mmHg 49%
    18:00 -15°C° 0 mm 2 mps 479 mmHg 46%
    19:00 -16°C° 0 mm 2 mps 479 mmHg 42%
    20:00 -18°C° 0 mm 3 mps 480 mmHg 39%
    21:00 -19°C° 0 mm 3 mps 479 mmHg 38%
    22:00 -21°C° 0 mm 3 mps 479 mmHg 37%
    23:00 -21°C° 0 mm 3 mps 479 mmHg 36%

    23 January, Tuesday

    Time Temperature Precipitation Wind Pressure Humidity
    00:00 -21°C° 0 mm 3 mps 479 mmHg 36%
    01:00 -22°C° 0 mm 3 mps 478 mmHg 35%
    02:00 -22°C° 0 mm 3 mps 478 mmHg 35%
    03:00 -22°C° 0 mm 3 mps 478 mmHg 35%
    04:00 -22°C° 0 mm 3 mps 478 mmHg 35%
    05:00 -22°C° 0 mm 3 mps 478 mmHg 36%
    06:00 -22°C° 0 mm 3 mps 478 mmHg 36%
    07:00 -22°C° 0 mm 3 mps 478 mmHg 37%
    08:00 -21°C° 0 mm 3 mps 479 mmHg 37%
    09:00 -17°C° 0 mm 2 mps 480 mmHg 41%
    10:00 -15°C° 0 mm 2 mps 480 mmHg 44%
    11:00 -12°C° 0 mm 2 mps 481 mmHg 48%
    12:00 -12°C° 0 mm 2 mps 481 mmHg 47%
    13:00 -9°C° 0 mm 1 mps 481 mmHg 46%
    14:00 -8°C° 0 mm 1 mps 481 mmHg 45%
    15:00 -9°C° 0 mm 1 mps 480 mmHg 47%
    16:00 -11°C° 0 mm 1 mps 479 mmHg 49%
    17:00 -12°C° 0 mm 1 mps 479 mmHg 51%
    18:00 -14°C° 0 mm 1 mps 479 mmHg 49%
    19:00 -17°C° 0 mm 2 mps 479 mmHg 47%
    20:00 -18°C° 0 mm 2 mps 479 mmHg 46%
    21:00 -18°C° 0 mm 2 mps 479 mmHg 45%
    22:00 -19°C° 0 mm 2 mps 479 mmHg 44%
    23:00 -19°C° 0 mm 2 mps 479 mmHg 43%

    24 January, Wednesday

    Time Temperature Precipitation Wind Pressure Humidity
    00:00 -20°C° 0 mm 2 mps 479 mmHg 41%
    01:00 -20°C° 0 mm 2 mps 479 mmHg 40%
    02:00 -20°C° 0 mm 2 mps 479 mmHg 39%
    03:00 -20°C° 0 mm 2 mps 479 mmHg 38%
    04:00 -20°C° 0 mm 2 mps 479 mmHg 37%
    05:00 -21°C° 0 mm 2 mps 479 mmHg 36%
    06:00 -22°C° 0 mm 3 mps 479 mmHg 36%
    07:00 -22°C° 0 mm 3 mps 479 mmHg 35%
    08:00 -22°C° 0 mm 3 mps 479 mmHg 35%
    09:00 -18°C° 0 mm 2 mps 480 mmHg 39%
    10:00 -15°C° 0 mm 2 mps 481 mmHg 43%
    11:00 -13°C° 0 mm 2 mps 482 mmHg 48%
    12:00 -12°C° 0 mm 2 mps 482 mmHg 47%
    13:00 -9°C° 0 mm 1 mps 482 mmHg 46%
    14:00 -8°C° 0 mm 1 mps 482 mmHg 45%
    15:00 -9°C° 0 mm 1 mps 481 mmHg 46%
    16:00 -11°C° 0 mm 1 mps 480 mmHg 47%
    17:00 -12°C° 0 mm 1 mps 479 mmHg 48%
    18:00 -15°C° 0 mm 2 mps 480 mmHg 46%
    19:00 -15°C° 0 mm 2 mps 480 mmHg 44%
    20:00 -16°C° 0 mm 2 mps 480 mmHg 42%
    21:00 -16°C° 0 mm 2 mps 480 mmHg 42%
    22:00 -18°C° 0 mm 3 mps 480 mmHg 41%
    23:00 -18°C° 0 mm 3 mps 480 mmHg 40%
    Show more